Pagrindinis puslapis
METAR-TAF:

METAR-TAF

Oro uostai :

Draugen, Norvegija

platuma: 64-21-20N, ilguma: 007-47-30E, Aukštis: 0 m

Dabartinis oras

Ataskaita buvo paskelbta 38 minutes, ne 23:20 UTC
Vėjas 13 kt iš Rytų/Šiaurės Rytų
Temperatūra 16°C
Drėgmė 88%
Slėgis 1009 hPa
Matomumas 10 km arba daugiau

METAR: ENDR 142320Z AUTO 06013KT 9999NDV OVC100/// 16/14 Q1009 W///S4

Laikas: 01:58 (23:58 UTC)


TAF: trūkstamas

Orai ataskaitas ir orų prognozės (METAR, TAF).

turimą stotys yra geltonos ir raudonos taškus žemėlapyje.

Perkelti pele per norėdami pamatyti stoties vardą.

Tada spustelėkite, norėdami matyti oro stebėjimo ir prognozės.

Norėdami pakeisti žemėlapį: spustelėkite ant žalios mygtukų su juodo kryžiaus žemyn,; žalią mygtuką su brūkšneliu, jei norite nutolinti; arba žalių rodyklių gretimoms žemėlapius.


METAR-TAF: